Location: Newark
(45.9456°N, 15.4064°E)
Time: 06:26:37
(UTC+00:00)

SR - Pass Details

Date: 31 January 2020
Orbit: 575 x 881 km, 66.7° (Epoch: 17 February)

Event Time Altitude Azimuth Distance (km) Brightness Sun altitude
Rises 19:03:17 0° 191° (S) 3,402 ? -31.7°
Enters shadow 19:04:15 - 189° (S) 3,053 ? -31.8°
Reaches altitude 10° 19:05:48 10° 185° (S) 2,495 - -32.1°
Maximum altitude 19:11:19 45° 114° (ESE) 1,181 - -33.0°
Drops below altitude 10° 19:16:56 10° 44° (NE) 2,538 - -34.0°
Sets 19:19:30 0° 38° (NE) 3,466 - -34.4°
